Location: Silverdale
(47.6506°N, 122.6941°W)
Time: 13:32:37
(UTC+00:00)

Vanguard 1 Rocket - All Passes

Search period start: 28 September 2022 00:00
Search period end: 08 October 2022 00:00
Orbit: 651 x 4225 km, 34.3° (Epoch: 26 September)

Date Brightness Start Highest point End Pass type
(mag) Time Alt. Az. Time Alt. Az. Time Alt. Az.
28 Sep - 03:51:35 10° SSW 04:04:50 26° SSE 04:13:17 10° ESE visible
28 Sep - 06:19:28 10° WSW 06:31:06 34° S 06:37:47 10° ESE visible
28 Sep - 08:48:57 10° WSW 08:55:41 24° SSW 09:00:14 10° SSE night (unlit)
29 Sep - 02:39:32 10° SSW 02:52:24 21° SSE 03:01:22 10° ESE visible
29 Sep - 05:05:31 10° SW 05:19:23 34° S 05:27:21 10° ESE visible
29 Sep - 07:35:11 10° WSW 07:44:50 32° SSW 07:50:35 10° SE visible
29 Sep - 10:05:43 10° WSW 10:08:27 13° SW 10:10:47 10° S night (unlit)
30 Sep - 01:29:34 10° S 01:39:41 15° SE 01:47:43 10° ESE daylight
30 Sep - 03:51:50 10° SW 04:07:13 31° SSE 04:16:29 10° ESE visible
30 Sep - 06:21:02 10° WSW 06:33:33 37° S 06:40:34 10° ESE visible
30 Sep - 08:51:17 10° WSW 08:58:00 22° SSW 09:02:34 10° SSE night (unlit)
01 Oct - 02:38:53 10° SSW 02:54:38 27° SSE 03:04:58 10° ESE visible
01 Oct - 05:06:40 10° SW 05:21:48 39° S 05:30:12 10° ESE visible
01 Oct - 07:37:10 10° WSW 07:47:12 32° SSW 07:53:09 10° SE visible
02 Oct - 01:27:24 10° S 01:41:47 21° SSE 01:52:21 10° ESE daylight
02 Oct - 03:52:27 10° SW 04:09:32 37° SSE 04:19:27 10° ESE visible
02 Oct - 06:22:43 10° WSW 06:35:57 39° S 06:43:14 10° ESE visible
02 Oct - 08:53:43 10° WSW 09:00:13 20° SSW 09:04:44 10° SSE night (unlit)
03 Oct - 00:18:48 10° SSE 00:28:51 14° SE 00:37:20 10° ESE daylight
03 Oct - 02:38:51 10° SSW 02:56:50 32° SSE 03:08:10 10° ESE visible
03 Oct - 05:08:00 10° WSW 05:24:09 42° S 05:32:58 10° ESE visible
03 Oct - 07:39:13 10° WSW 07:49:30 31° SSW 07:55:37 10° SE visible
04 Oct - 01:26:25 10° SSW 01:43:50 27° SSE 01:56:03 10° E daylight
04 Oct - 03:53:20 10° SW 04:11:48 42° S 04:22:17 10° ESE visible
04 Oct - 06:24:28 10° WSW 06:38:16 40° SSW 06:45:51 10° SE visible
04 Oct - 08:56:20 10° WSW 09:02:18 18° SW 09:06:37 10° S visible
05 Oct - 00:15:55 10° S 00:30:43 20° SE 00:42:27 10° ESE daylight
05 Oct - 02:39:13 10° SW 02:58:58 38° SSE 03:11:08 10° E visible
05 Oct - 05:09:27 10° WSW 05:26:27 45° S 05:35:38 10° ESE visible
05 Oct - 07:41:20 10° W 07:51:41 29° SSW 07:57:57 10° SSE visible
05 Oct - 23:09:43 10° SSE 23:17:43 12° SE 23:25:01 10° ESE daylight
06 Oct - 01:26:07 10° SSW 01:45:48 32° SSE 01:59:17 10° E daylight
06 Oct - 03:54:27 10° WSW 04:14:02 46° S 04:25:01 10° ESE visible
06 Oct - 06:26:17 10° W 06:40:31 39° SSW 06:48:22 10° SE visible
06 Oct - 08:59:16 10° WSW 09:04:17 15° SW 09:08:09 10° SSW visible
07 Oct - 00:14:34 10° S 00:32:30 25° SE 00:46:21 10° E daylight
07 Oct - 02:39:56 10° SW 03:01:05 43° SSE 03:13:57 10° E visible
07 Oct - 05:11:01 10° WSW 05:28:42 46° S 05:38:15 10° ESE visible
07 Oct - 07:43:31 10° W 07:53:46 26° SW 08:00:08 10° SSE visible
07 Oct - 23:05:32 10° SSE 23:19:19 18° SE 23:31:20 10° ESE daylight
